Погода в Кяхте

Россия / Самарская область     53°28′56″N   48°44′56″E
темп.,
°C
ветер,
м/с
пор.,
м/с
влажн.,
%
обл.,
%
осадки,
мм/ч
давл.,
гПа
погр.,
м
12 мая, ср
ср1201:00+14всв117884 0.0 102511
04:00+13св117968 0.0 102511
07:00+15всв297070 0.0 1026281
10:00+19вюв6114976 0.0 1026785
13:00+18ююв51051100 0.0 1026395
16:00+21вюв694599 0.0 1025912
19:00+19юв366295 0.1 1025241
22:00+17вюв376432 0.1 1025176
13 мая, чт
чт1301:00+14всв22665 0.0 102416
04:00+13всв336979 0.0 102536
07:00+15всв4106263 0.0 1024240
10:00+17юв51057100 0.0 1024418
13:00+18в41071100 0.0 1024418
16:00+25юв71241100 0.0 10221728
19:00+21ююв5125164 0.0 1021335
22:00+17юв3956100 0.0 1022145
14 мая, пт
пт1401:00+15юв33701 0.2 102236
04:00+13ююв33657 0.2 102228
07:00+16ююв39635 0.0 1023214
10:00+21ююв6846100 0.0 1023496
13:00+26ю7103399 0.0 10221057
16:00+27ю6937100 0.0 10221283
19:00+23ююв6124878 0.0 1021365
22:00+19ююв4134891 0.0 1022258
15 мая, сб
сб1501:00+16ююв311565 0.0 1021174
04:00+15ююв345610 0.0 102148
07:00+16ююв37605 0.0 1022181
10:00+23ю58405 0.0 1021460
13:00+27ю69285 0.0 10211306
16:00+28ю58265 0.0 10202051
19:00+25ю23465 0.0 101939
22:00+19ююв34524 0.0 101946
16 мая, вс
вс1601:00+17ююв33554 0.0 101933
04:00+16ююв33605 0.0 101929
07:00+18ююв396444 0.0 1019232
10:00+24ю610465 0.0 1018578
13:00+28ююз610325 0.0 10181802
16:00+28юз6934100 0.0 10172460
19:00+24ююз3448100 0.0 101769
22:00+20зюз115210 0.0 101711